TIANWANG 1B (TW-1B)
1 40927U 15051C   19073.36138700  .00008740  00000-0  14596-3 0  9999
2 40927  97.1523 119.2787 0009695  32.7793  96.5931 15.52124330195066
TIANWANG 1A (TW-1A)
1 40928U 15051D   19073.48884156  .00002730  00000-0  69956-4 0  9990
2 40928  97.1570 106.9023 0013280  66.4923  39.4791 15.40146486194364
LAPAN A2
1 40931U 15052B   19073.16722261  .00000689  00000-0  68525-5 0  9991
2 40931   6.0009  24.8217 0013598 231.1798 128.7114 14.76599871186977
LQSAT
1 40958U 15057A   19073.44813469  .00000006  00000-0  86212-5 0  9993
2 40958  97.9086 145.1982 0017698 185.5691 174.5320 14.73069309184639
CHUBUSAT 2
1 41338U 16012B   19073.21040402  .00000310  00000-0  17389-4 0  9998
2 41338  31.0039  37.8996 0013904 227.4882 132.4579 15.00105724168415
CHUBUSAT 3
1 41339U 16012C   19073.32433176  .00000281  00000-0  15051-4 0  9996
2 41339  31.0103  35.3921 0013455 236.5163 123.4184 15.00284125168429
OUFTI-1
1 41458U 16025C   19073.42386787  .00001217  00000-0  66665-4 0  9995
2 41458  98.1051 155.3919 0166391 321.0598  37.8740 15.05479713158099
E-STAR-2
1 41459U 16025D   19073.41823616  .00000932  00000-0  52482-4 0  9997
2 41459  98.1047 155.1019 0167522 322.2715  36.6848 15.05147114158065
AAUSAT 4
1 41460U 16025E   19073.17774965  .00000718  00000-0  40762-4 0  9994
2 41460  98.0983 155.8609 0158452 316.6264  42.2649 15.06883989158133
NUSAT 1
1 41557U 16033B   19073.52356974  .00001129  00000-0  45433-4 0  9992
2 41557  97.4200 161.5990 0012309 278.4366  81.5477 15.26939557155418
BEESAT 4
1 41619U 16040W   19073.12919377  .00001213  00000-0  54741-4 0  9993
2 41619  97.3794 137.1092 0011551  11.8372 348.3134 15.22840726139163
PRATHAM
1 41783U 16059A   19072.82164183 +.00000013 +00000-0 +11816-4 0  9991
2 41783 098.0802 134.4824 0032781 330.5811 029.3545 14.62977007131387
ALSAT 1N
1 41789U 16059G   19073.37110461  .00000050  00000-0  18601-4 0  9998
2 41789  98.0825 136.8071 0027354 319.9314  39.9873 14.64221676131553
NAYIF 1
1 42017U 17008BX  19072.67547008 +.00001379 +00000-0 +57748-4 0  9991
2 42017 097.4139 140.7353 0007362 140.4835 219.6941 15.25216436115133
LILACSAT-1
1 42725U 98067ME  19073.38993271  .00341827  64645-4  47375-3 0  9995
2 42725  51.6272  37.9377 0004417 127.0361   9.3422 16.05436566103249
MAX VALIER SAT
1 42778U 17036P   19072.87783948 +.00000793 +00000-0 +37908-4 0  9998
2 42778 097.3671 132.6234 0012044 196.6572 163.4270 15.21811044095511
